Livingston, MT

1:42 PM MDT on September 25, 2017 (GMT -0600)
Mission

Weather History for KLVM - May, 2013

Change the Weather History Date:

Sunday, May 19, 2013

  Actual Average Record
Temperature  
Mean Temperature 47 °F 52 °F  
Max Temperature 48 °F 66 °F 93 °F (1954)
Min Temperature 46 °F 38 °F 22 °F (2003)
Degree Days  
Heating Degree Days 18 13  
Month to date heating degree days 305  
Since 1 July heating degree days 7253  
Cooling Degree Days 0 0  
Month to date cooling degree days 0  
Year to date cooling degree days 0  
Moisture  
Dew Point 43 °F    
Average Humidity 85    
Maximum Humidity 93    
Minimum Humidity 77    
Precipitation  
Precipitation 0.82 in 0.09 in 0.86 in (2013)
Month to date precipitation 1.52  
Year to date precipitation 5.12  
Sea Level Pressure  
Sea Level Pressure 30.04 in    
Wind  
Wind Speed 12 mph (WSW)    
Max Wind Speed 17 mph    
Max Gust Speed 28 mph    
Visibility 9 miles    
Events Rain    
T = Trace of Precipitation, MM = Missing Value Source: NWS Daily Summary

Daily Weather History Graph

Daily Weather History Graph

Search for Another Location

Airport or City:

Trip Planner

Search our weather history database for the weather conditions in past years. The results will help you decide how hot, cold, wet, or windy it might be!

Date:

Astronomy

May. 19, 2013 Rise Set
Actual Time 5:45 AM MDT 8:51 PM MDT
Civil Twilight 5:10 AM MDT 9:26 PM MDT
Nautical Twilight 4:24 AM MDT 10:12 PM MDT
Astronomical Twilight 3:29 AM MDT 11:08 PM MDT
Moon 2:42 PM MDT (5/19) 2:29 AM MDT (5/19)
Length of Visible Light 16h 16m
Length of Day
15h 05m
Waxing Gibbous, 66% of the Moon is Illuminated
May 19
Waxing Gibbous
May 24
Full
May 31
Last Quarter
Jun 8
New
Jun 16
First Quarter

Hourly Weather History & Observations

Time (MDT) Temp. Windchill Dew Point Humidity Pressure Visibility Wind Dir Wind Speed Gust Speed Precip Events Conditions
12:15 AM 46.4 °F 40.7 °F 42.8 °F 87% 29.99 in 10.0 mi WSW 12.7 mph - 0.01 in Rain Light Rain
12:53 AM 46.9 °F - 43.0 °F 86% 29.95 in 10.0 mi West 9.2 mph - 0.02 in Rain Light Rain
1:07 AM 46.4 °F 41.5 °F 42.8 °F 87% 30.00 in 10.0 mi WSW 10.4 mph - 0.01 in Rain Light Rain
1:53 AM 46.9 °F - 43.0 °F 86% 29.95 in 10.0 mi WSW 10.4 mph - 0.03 in Rain Light Rain
2:05 AM 46.4 °F 40.7 °F 42.8 °F 87% 30.00 in 10.0 mi WSW 12.7 mph - 0.00 in Rain Light Rain
2:53 AM 46.0 °F 41.0 °F 43.0 °F 89% 29.94 in 9.0 mi West 10.4 mph - 0.02 in Rain Light Rain
4:53 AM 46.9 °F - 39.9 °F 77% 29.97 in 10.0 mi WSW 10.4 mph - N/A   Overcast
6:53 AM 46.9 °F - 39.9 °F 77% 29.98 in 10.0 mi WSW 13.8 mph - 0.00 in Rain Light Rain
7:53 AM 46.9 °F - 42.1 °F 83% 29.99 in 10.0 mi WSW 10.4 mph - 0.00 in Rain Light Rain
8:53 AM 46.9 °F - 42.1 °F 83% 29.99 in 10.0 mi WSW 13.8 mph - 0.02 in Rain Light Rain
9:53 AM 46.9 °F - 43.0 °F 86% 30.01 in 7.0 mi WSW 17.3 mph - 0.06 in Rain Light Rain
10:53 AM 46.9 °F - 44.1 °F 90% 30.03 in 5.0 mi West 13.8 mph - 0.12 in Rain Rain
11:22 AM 46.4 °F 40.7 °F 44.6 °F 93% 30.05 in 4.0 mi WSW 12.7 mph - 0.03 in Rain Rain
11:53 AM 48.0 °F - 44.1 °F 86% 30.04 in 6.0 mi West 12.7 mph - 0.08 in Rain Light Rain
12:16 PM 48.2 °F - 42.8 °F 82% 30.06 in 9.0 mi WNW 12.7 mph 19.6 mph 0.01 in Rain Light Rain
12:37 PM 48.2 °F - 42.8 °F 82% 30.06 in 10.0 mi WNW 9.2 mph 19.6 mph 0.02 in Rain Light Rain
1:08 PM 48.2 °F - 44.6 °F 87% 30.06 in 10.0 mi NW 16.1 mph 24.2 mph 0.01 in Rain Light Rain
2:21 PM 48.2 °F - 42.8 °F 82% 30.08 in 10.0 mi WNW 12.7 mph - 0.02 in Rain Light Rain
2:31 PM 48.2 °F - 42.8 °F 82% 30.08 in 9.0 mi NW 17.3 mph 27.6 mph 0.03 in Rain Light Rain
2:53 PM 48.0 °F - 43.0 °F 83% 30.07 in 10.0 mi West 13.8 mph - 0.04 in Rain Light Rain
3:19 PM 48.2 °F - 42.8 °F 82% 30.08 in 10.0 mi West 13.8 mph - 0.02 in Rain Light Rain
3:53 PM 48.0 °F - 43.0 °F 83% 30.07 in 9.0 mi SW 16.1 mph - 0.04 in Rain Light Rain
4:53 PM 48.0 °F - 43.0 °F 83% 30.08 in 5.0 mi WSW 13.8 mph - 0.07 in Rain Rain
5:53 PM 48.0 °F - 44.1 °F 86% 30.08 in 8.0 mi WSW 12.7 mph - 0.10 in Rain Light Rain
6:53 PM 48.0 °F - 44.1 °F 86% 30.08 in 7.0 mi SW 13.8 mph - 0.05 in Rain Light Rain
7:53 PM 48.0 °F - 44.1 °F 86% 30.09 in 5.0 mi SW 11.5 mph - 0.06 in Rain Light Rain
8:53 PM 48.0 °F - 45.0 °F 89% 30.10 in 9.0 mi WSW 8.1 mph - 0.07 in Rain Light Rain
9:53 PM 48.9 °F - 45.0 °F 86% 30.12 in 10.0 mi WSW 8.1 mph - 0.03 in Rain Light Rain
10:53 PM 48.9 °F - 45.0 °F 86% 30.12 in 10.0 mi WSW 4.6 mph - 0.01 in   Overcast
11:53 PM 48.9 °F - 45.0 °F 86% 30.11 in 10.0 mi Calm Calm - N/A   Overcast